• In Belarus
  • List of Countries
  • For 7 days
  • Water Temperature
  • Satellite Maps
  • Weather Map
  • Weather Widgets
  • user-avatar
    Login

    Hourly Weather Saint-Rémi

    Today, 21 January, Sunday

    Time Temperature Precipitation Wind Pressure Humidity
    00:00 -5°C° 0 mm 3 mps 756 mmHg 86%
    01:00 -5°C° 0 mm 2 mps 756 mmHg 85%
    02:00 -5°C° 0 mm 2 mps 757 mmHg 85%
    03:00 -3°C° 0 mm 1 mps 757 mmHg 85%
    04:00 -3°C° 0 mm 1 mps 758 mmHg 85%
    05:00 -4°C° 0 mm 1 mps 758 mmHg 86%
    06:00 -4°C° 0 mm 1 mps 759 mmHg 86%
    07:00 -4°C° 0 mm 1 mps 759 mmHg 86%
    08:00 -4°C° 0 mm 1 mps 760 mmHg 84%
    09:00 -3°C° 0 mm 1 mps 760 mmHg 81%
    10:00 -3°C° 0 mm 1 mps 761 mmHg 78%
    11:00 -3°C° 0 mm 0 mps 761 mmHg 78%
    12:00 -3°C° 0 mm 0 mps 760 mmHg 78%
    13:00 -2°C° 0 mm 0 mps 760 mmHg 78%
    14:00 -2°C° 0 mm 0 mps 760 mmHg 81%
    15:00 -2°C° 0 mm 0 mps 760 mmHg 84%
    16:00 -3°C° 0 mm 0 mps 761 mmHg 86%
    17:00 -3°C° 0 mm 0 mps 761 mmHg 87%
    18:00 -2°C° 0 mm 1 mps 761 mmHg 88%
    19:00 -3°C° 0 mm 1 mps 761 mmHg 89%
    20:00 -3°C° 0 mm 1 mps 761 mmHg 89%
    21:00 -2°C° 0 mm 1 mps 761 mmHg 90%
    22:00 -3°C° 0 mm 0 mps 762 mmHg 90%
    23:00 -2°C° 0 mm 1 mps 762 mmHg 91%

    Tomorrow, 22 January, Monday

    Time Temperature Precipitation Wind Pressure Humidity
    00:00 -2°C° 0 mm 1 mps 762 mmHg 91%
    01:00 -1°C° 0 mm 1 mps 762 mmHg 92%
    02:00 -2°C° 0.1 mm 1 mps 762 mmHg 93%
    03:00 -4°C° 0.1 mm 2 mps 762 mmHg 93%
    04:00 -4°C° 0.1 mm 2 mps 762 mmHg 94%
    05:00 -5°C° 0 mm 3 mps 762 mmHg 93%
    06:00 -6°C° 0 mm 3 mps 762 mmHg 93%
    07:00 -7°C° 0 mm 4 mps 763 mmHg 92%
    08:00 -7°C° 0 mm 4 mps 763 mmHg 92%
    09:00 -7°C° 0 mm 4 mps 763 mmHg 91%
    10:00 -7°C° 0 mm 4 mps 763 mmHg 90%
    11:00 -7°C° 0 mm 4 mps 762 mmHg 90%
    12:00 -5°C° 0 mm 4 mps 761 mmHg 89%
    13:00 -5°C° 0 mm 4 mps 761 mmHg 89%
    14:00 -6°C° 0.1 mm 5 mps 760 mmHg 90%
    15:00 -6°C° 0.1 mm 5 mps 760 mmHg 91%
    16:00 -6°C° 0.1 mm 5 mps 759 mmHg 91%
    17:00 -5°C° 1.2 mm 5 mps 758 mmHg 93%
    18:00 -5°C° 1.2 mm 5 mps 758 mmHg 94%
    19:00 -4°C° 1.2 mm 5 mps 757 mmHg 95%
    20:00 -3°C° 1.1 mm 4 mps 756 mmHg 95%
    21:00 -2°C° 1.1 mm 4 mps 756 mmHg 96%
    22:00 -1°C° 1.1 mm 4 mps 755 mmHg 96%
    23:00 -1°C° 0.5 mm 4 mps 754 mmHg 96%

    Day after tomorrow, 23 January, Tuesday

    Time Temperature Precipitation Wind Pressure Humidity
    00:00 0°C° 0.5 mm 4 mps 753 mmHg 95%
    01:00 0°C° 0.5 mm 4 mps 752 mmHg 94%
    02:00 0°C° 0.8 mm 4 mps 751 mmHg 95%
    03:00 +2°C° 0.8 mm 3 mps 750 mmHg 95%
    04:00 +2°C° 0.8 mm 3 mps 750 mmHg 96%
    05:00 +2°C° 1 mm 3 mps 749 mmHg 96%
    06:00 +2°C° 1 mm 3 mps 747 mmHg 96%
    07:00 +2°C° 1 mm 3 mps 746 mmHg 96%
    08:00 +2°C° 0.3 mm 3 mps 745 mmHg 96%
    09:00 +3°C° 0.3 mm 3 mps 745 mmHg 96%
    10:00 +3°C° 0.3 mm 3 mps 744 mmHg 97%
    11:00 +3°C° 0.2 mm 3 mps 743 mmHg 97%
    12:00 +3°C° 0.2 mm 3 mps 742 mmHg 97%
    13:00 +3°C° 0.2 mm 3 mps 741 mmHg 97%
    14:00 +3°C° 0.6 mm 3 mps 741 mmHg 95%
    15:00 +1°C° 0.6 mm 4 mps 742 mmHg 93%
    16:00 +1°C° 0.6 mm 4 mps 742 mmHg 91%
    17:00 +1°C° 0.1 mm 4 mps 742 mmHg 90%
    18:00 0°C° 0.1 mm 4 mps 742 mmHg 89%
    19:00 0°C° 0.1 mm 4 mps 742 mmHg 88%
    20:00 0°C° 0 mm 4 mps 742 mmHg 88%
    21:00 0°C° 0 mm 4 mps 742 mmHg 88%
    22:00 0°C° 0 mm 5 mps 741 mmHg 88%
    23:00 0°C° 0.1 mm 5 mps 742 mmHg 87%

    24 January, Wednesday

    Time Temperature Precipitation Wind Pressure Humidity
    00:00 -1°C° 0.1 mm 6 mps 742 mmHg 86%
    01:00 -1°C° 0.1 mm 7 mps 742 mmHg 85%
    02:00 -3°C° 0.1 mm 7 mps 743 mmHg 83%
    03:00 -6°C° 0.1 mm 7 mps 744 mmHg 81%
    04:00 -7°C° 0.1 mm 8 mps 745 mmHg 79%
    05:00 -8°C° 0.1 mm 8 mps 747 mmHg 79%
    06:00 -10°C° 0.1 mm 8 mps 748 mmHg 78%
    07:00 -11°C° 0.1 mm 8 mps 749 mmHg 78%
    08:00 -11°C° 0 mm 8 mps 750 mmHg 76%
    09:00 -12°C° 0 mm 8 mps 751 mmHg 74%
    10:00 -13°C° 0 mm 8 mps 752 mmHg 72%
    11:00 -13°C° 0 mm 8 mps 752 mmHg 72%
    12:00 -13°C° 0 mm 8 mps 752 mmHg 71%
    13:00 -15°C° 0 mm 8 mps 752 mmHg 71%
    14:00 -14°C° 0 mm 7 mps 753 mmHg 71%
    15:00 -14°C° 0 mm 7 mps 754 mmHg 71%
    16:00 -14°C° 0 mm 7 mps 754 mmHg 72%
    17:00 -15°C° 0 mm 7 mps 755 mmHg 72%
    18:00 -15°C° 0 mm 7 mps 755 mmHg 73%
    19:00 -15°C° 0 mm 7 mps 756 mmHg 73%
    20:00 -17°C° 0 mm 7 mps 756 mmHg 74%
    21:00 -18°C° 0 mm 7 mps 757 mmHg 75%
    22:00 -17°C° 0 mm 6 mps 757 mmHg 75%
    23:00 -18°C° 0 mm 6 mps 758 mmHg 75%

    25 January, Thursday

    Time Temperature Precipitation Wind Pressure Humidity
    00:00 -18°C° 0 mm 6 mps 758 mmHg 75%
    01:00 -20°C° 0 mm 6 mps 758 mmHg 75%
    02:00 -20°C° 0 mm 6 mps 759 mmHg 75%
    03:00 -21°C° 0 mm 6 mps 759 mmHg 75%
    04:00 -21°C° 0 mm 6 mps 760 mmHg 75%
    05:00 -22°C° 0 mm 6 mps 760 mmHg 75%
    06:00 -22°C° 0 mm 6 mps 761 mmHg 75%
    07:00 -23°C° 0 mm 7 mps 762 mmHg 75%
    08:00 -23°C° 0 mm 7 mps 762 mmHg 74%
    09:00 -23°C° 0 mm 7 mps 763 mmHg 73%
    10:00 -23°C° 0 mm 7 mps 763 mmHg 72%
    11:00 -21°C° 0 mm 7 mps 763 mmHg 71%
    12:00 -21°C° 0 mm 7 mps 763 mmHg 70%
    13:00 -20°C° 0 mm 7 mps 763 mmHg 70%
    14:00 -20°C° 0 mm 7 mps 763 mmHg 70%
    15:00 -20°C° 0 mm 7 mps 763 mmHg 70%
    16:00 -20°C° 0 mm 7 mps 764 mmHg 71%
    17:00 -20°C° 0 mm 6 mps 765 mmHg 72%
    18:00 -20°C° 0 mm 6 mps 765 mmHg 73%
    19:00 -20°C° 0 mm 6 mps 766 mmHg 74%
    20:00 -20°C° 0 mm 5 mps 767 mmHg 74%
    21:00 -20°C° 0 mm 5 mps 767 mmHg 75%
    22:00 -20°C° 0 mm 5 mps 768 mmHg 75%
    23:00 -21°C° 0 mm 5 mps 768 mmHg 76%

    26 January, Friday

    Time Temperature Precipitation Wind Pressure Humidity
    00:00 -21°C° 0 mm 5 mps 768 mmHg 76%
    01:00 -20°C° 0 mm 4 mps 769 mmHg 77%
    02:00 -20°C° 0 mm 4 mps 769 mmHg 77%
    03:00 -20°C° 0 mm 4 mps 770 mmHg 77%
    04:00 -22°C° 0 mm 4 mps 771 mmHg 78%
    05:00 -22°C° 0 mm 4 mps 771 mmHg 78%
    06:00 -22°C° 0 mm 4 mps 772 mmHg 78%
    07:00 -21°C° 0 mm 3 mps 772 mmHg 79%
    08:00 -19°C° 0 mm 3 mps 772 mmHg 77%
    09:00 -19°C° 0 mm 3 mps 773 mmHg 75%
    10:00 -18°C° 0 mm 3 mps 773 mmHg 73%
    11:00 -17°C° 0 mm 3 mps 773 mmHg 71%
    12:00 -16°C° 0 mm 3 mps 773 mmHg 69%
    13:00 -15°C° 0 mm 3 mps 772 mmHg 68%
    14:00 -15°C° 0 mm 3 mps 772 mmHg 69%
    15:00 -15°C° 0 mm 3 mps 772 mmHg 69%
    16:00 -14°C° 0 mm 3 mps 772 mmHg 70%
    17:00 -14°C° 0 mm 2 mps 772 mmHg 73%
    18:00 -14°C° 0 mm 2 mps 773 mmHg 75%
    19:00 -12°C° 0 mm 1 mps 773 mmHg 77%
    20:00 -12°C° 0 mm 1 mps 773 mmHg 77%
    21:00 -12°C° 0 mm 1 mps 773 mmHg 77%
    22:00 -12°C° 0 mm 1 mps 773 mmHg 77%
    23:00 -12°C° 0 mm 1 mps 772 mmHg 76%
    Show more